
Comet 23P/Brorsen-Metcalf 
Epoch 2059 May 27.0 TT = JDT 2473240.5  
T 2059 June 8.74397 TT                                  Muraoka 
q   0.4827285            (2000.0)            P               Q
n   0.01372329     Peri.  129.36998     +0.12339388     -0.96115630
a  17.2781527      Node   311.66433     +0.77815476     +0.24810757
e   0.9720613      Incl.   19.29790     +0.61583206     -0.12091816
P  71.82
>From 253 observations 1847-1989, mean residual 2".15.  Nongravitational
   parameters A1 = +0.35 +/- 0.02, A2 = -0.0532 +/- 0.0000.

Comet 23P/Brorsen-Metcalf 
Epoch 1775 July 15.0 TT = JDT 2369560.5  
T 1775 July 20.32333 TT                                 Muraoka 
q   0.4849195            (2000.0)            P               Q
n   0.01353262     Peri.  128.83608     +0.11721746     -0.96378545
a  17.4400675      Node   312.62739     +0.78007838     +0.23862604
e   0.9721951      Incl.   18.99934     +0.61460377     -0.11905969
P  72.83
>From 253 observations 1847-1989, mean residual 2".15.  Nongravitational
   parameters A1 = +0.35 +/- 0.02, A2 = -0.0532 +/- 0.0000.

Comet 23P/Brorsen-Metcalf 
Epoch 1703 Oct. 21.0 TT = JDT 2343360.5  
T 1703 Nov. 4.59246 TT                                  Muraoka 
q   0.4813037            (2000.0)            P               Q
n   0.01373929     Peri.  128.92102     +0.11801141     -0.96350906
a  17.2647306      Node   312.49158     +0.78004858     +0.23966894
e   0.9721221      Incl.   19.01570     +0.61448964     -0.11920193
P  71.74
>From 253 observations 1847-1989, mean residual 2".15.  Nongravitational
   parameters A1 = +0.35 +/- 0.02, A2 = -0.0532 +/- 0.0000.



Copyright (C) 2006 Tsutomu Seki. (関勉)